Location: Unspecified
(41.1637°N, 24.2901°E)
Time: 03:00:11
(UTC+02:00)

Envisat - Visible Passes

Search period start: 26 September 2022 00:00
Search period end: 06 October 2022 00:00
Orbit: 764 x 765 km, 98.2° (Epoch: 25 September)

Date Brightness Start Highest point End Pass type
(mag) Time Alt. Az. Time Alt. Az. Time Alt. Az.
26 Sep 5.3 03:43:48 10° NE 03:47:38 21° E 03:51:27 10° SE visible
26 Sep 3.3 05:22:00 10° N 05:26:49 45° WNW 05:31:37 10° SW visible
27 Sep 3.0 04:44:51 10° NNE 04:49:58 83° ESE 04:55:03 10° SSW visible
28 Sep 4.4 04:08:14 10° NNE 04:12:55 36° E 04:17:34 10° SSE visible
28 Sep 4.0 05:47:32 10° N 05:51:44 27° WNW 05:55:55 10° WSW visible
29 Sep 5.6 03:32:29 10° NE 03:35:40 17° E 03:38:50 10° SE visible
29 Sep 3.1 05:10:03 10° N 05:15:01 57° WNW 05:19:59 10° SSW visible
30 Sep 3.4 04:33:03 10° NNE 04:38:07 65° E 04:43:08 10° S visible
01 Oct 4.9 03:56:37 10° NE 04:01:00 29° E 04:05:21 10° SSE visible
01 Oct 3.7 05:35:27 10° N 05:39:59 33° WNW 05:44:30 10° SW visible
02 Oct 5.9 03:21:31 10° ENE 03:23:41 13° E 03:25:49 10° ESE visible
02 Oct 2.9 04:58:07 10° N 05:03:12 74° WNW 05:08:15 10° SSW visible
03 Oct 3.8 04:21:17 10° NNE 04:26:13 50° E 04:31:08 10° S visible
04 Oct 5.2 03:45:06 10° NE 03:49:03 22° E 03:52:59 10° SE visible
04 Oct 3.4 05:23:26 10° N 05:28:13 42° WNW 05:32:58 10° SW visible
05 Oct 3.0 04:46:15 10° NNE 04:51:21 87° E 04:56:27 10° SSW visible
